Погода в Металлплощадке

Россия / Кемеровская область (Кузбасс)     55°19′12″N   86°11′43″E
темп.,
°C
ветер,
м/с
пор.,
м/с
влажн.,
%
обл.,
%
осадки,
мм/ч
давл.,
гПа
погр.,
м
9 декабря, чт
чт901:00−21ю2597100 0.0 1040127
04:00−20ююз3797100 0.1 1040245
07:00−21ююз3798100 0.3 1042223
10:00−19ююз4797100 0.3 1044295
13:00−18ююз4894100 0.4 1045380
16:00−18ююз51094100 0.1 1045426
19:00−18ююз51091100 0.1 1046374
22:00−19ю51092100 0.0 1047337
10 декабря, пт
пт1001:00−19ю51092100 0.0 1047275
04:00−20ю51092100 0.0 1046301
07:00−19ю61192100 0.0 1045361
10:00−17ю61296100 0.3 1044433
13:00−14ююз61194100 0.9 1043518
16:00−13ююз51094100 0.6 1043562
19:00−13ю5994100 0.9 1044385
22:00−12ю51094100 0.2 1044354
11 декабря, сб
сб1101:00−12ю51094100 0.4 1043385
04:00−11ю61095100 0.6 1042393
07:00−11ю61193100 0.7 1040341
10:00−11ю51286100 0.0 1039353
13:00−9ю51383100 0.0 1036381
16:00−8ю51284100 0.0 1033349
19:00−9ю41186100 0.0 1031238
22:00−9ю51281100 0.0 1028261
12 декабря, вс
вс1201:00−9ю51183100 0.0 1026289
04:00−8ююз4983100 0.0 1024328
07:00−12ююз2591100 0.0 102372
10:00−14ююз2495100 0.0 102379
13:00−12зюз2594100 0.0 1022240
16:00−12зюз2395100 0.0 102386
19:00−20з2210045 0.0 102517
22:00−22з1110088 0.0 102717
13 декабря, пн
пн1301:00−22юз1110099 0.1 102921
04:00−21юз2499100 0.1 1030117
07:00−21юз2698100 0.4 1031178
10:00−20ююз3798100 0.2 1032251
13:00−18ююз4796100 0.7 1031362
16:00−17ю4896100 0.8 1030387
19:00−16ю5996100 1.6 1029395
22:00−15ю4996100 0.8 1027468